Meteo Giornale » Osservazioni meteo Italia » Venezia-Tessera

ore: 05:20 - Osservazioni Meteo Venezia-Tessera
Lat. 45° 30' N Lon. 12° 20' E Alt. 2 metri s.l.m.

sereno Europe/Rome

15 °C

Sereno

Temp. 24 Ore

12 °C

18 °C

Sud/Sud-Est

11.1 Km/h

Dew point 9 °C

Umidità 67 %

Visibilità  10 Km

Il sole sorge alle ore 06:03

Il sole tramonta alle ore 20:12

Data e Ora Cielo e Fenomeni T °C DP °C Um. % Pres. hPa Vis. km Vento km/h
Oggi h: 05:20 sereno Sereno 15 9 67 1009 10 S/SE 11.1
Oggi h: 04:50 sereno Sereno 15 9 67 1009 10 S 11.1
Oggi h: 04:20 sereno Sereno 14 11 82 1010 10 S/SO 11.1
Oggi h: 03:50 sereno Sereno 12 11 93 1010 10 N 1.8
Oggi h: 03:20 sereno Sereno 13 12 93 1010 10 N 3.7
Oggi h: 02:50 sereno Sereno 12 11 93 1010 10 N/NE 7.4
Oggi h: 02:20 sereno Sereno 13 11 87 1010 10 N/NE 7.4
Oggi h: 01:50 sereno Sereno 12 11 93 1010 10 N 9.3
Oggi h: 01:20 sereno Sereno 13 11 87 1010 10 N 11.1
Oggi h: 00:50 sereno Sereno 14 12 87 1010 10 N 3.7
Oggi h: 00:20 poco_nuvoloso Poco Nuvoloso 15 13 87 1010 10 N 5.5
Ieri h: 23:50 sereno Sereno 15 12 82 1010 10 NO 9.3
Ieri h: 23:20 poco_nuvoloso Poco Nuvoloso 16 13 82 1010 10 S 22.2
Ieri h: 22:50 sereno Sereno 15 12 82 1010 10 S/SE 24
Ieri h: 22:20 poco_nuvoloso Poco Nuvoloso 15 12 82 1010 10 S/SE 25.9
Ieri h: 21:50 sereno Sereno 16 12 77 1010 10 S/SE 25.9
Ieri h: 21:20 poco_nuvoloso Poco Nuvoloso 16 12 77 1010 10 S/SE 25.9
Ieri h: 20:50 nuvoloso Nuvoloso 16 11 72 1010 10 S/SE 24
Ieri h: 19:50 nuvoloso Nuvoloso 16 12 77 1010 10 SE 22.2
Ieri h: 19:20 molto_nuvoloso Molto Nuvoloso 16 12 77 1011 10 SE 22.2
Ieri h: 18:50 molto_nuvoloso Molto Nuvoloso 16 12 77 1011 10 SE 22.2
Ieri h: 18:20 molto_nuvoloso Molto Nuvoloso 16 11 72 1011 10 S/SE 20.3
Ieri h: 17:50 molto_nuvoloso Molto Nuvoloso 16 10 67 1011 10 S/SE 22.2
Ieri h: 17:20 molto_nuvoloso Molto Nuvoloso 17 12 72 1011 10 SE 22.2
Ieri h: 16:50 nuvoloso Nuvoloso 18 11 63 1012 10 S/SE 20.3
Ieri h: 16:20 sereno Sereno 18 11 63 1012 10 S/SE 18.5
Ieri h: 15:50 sereno Sereno 18 12 67 1012 10 S/SE 18.5
Ieri h: 15:20 nuvoloso Nuvoloso 18 12 67 1013 10 SE 18.5
Ieri h: 14:50 nuvoloso Nuvoloso 17 12 72 1013 10 SE 13
Ieri h: 14:20 nuvoloso Nuvoloso 17 12 72 1013 10 SE 13
Ieri h: 13:50 nuvoloso Nuvoloso 17 11 67 1013 10 SE 13
Ieri h: 13:20 molto_nuvoloso Molto Nuvoloso 16 12 77 1014 10 SE 7.4
Ieri h: 12:50 molto_nuvoloso Molto Nuvoloso 16 12 77 1014 10 N 5.5
Ieri h: 12:20 molto_nuvoloso Molto Nuvoloso 15 12 82 1014 10 N 5.5
Ieri h: 11:50 molto_nuvoloso Molto Nuvoloso 16 12 77 1014 10 S 7.4
Ieri h: 11:20 nuvoloso Nuvoloso 16 11 72 1014 9 N 7.4
Ieri h: 10:20 molto_nuvoloso Molto Nuvoloso 15 12 82 1014 9 NE 7.4
Ieri h: 09:50 molto_nuvoloso Molto Nuvoloso 14 11 82 1014 9 NE 9.3
Ieri h: 09:20 molto_nuvoloso Molto Nuvoloso 14 12 87 1014 8 N 7.4
Ieri h: 08:50 nuvoloso Nuvoloso 14 11 82 1014 8 N/NE 9.3
Ieri h: 08:20 nuvoloso Nuvoloso 13 10 81 1014 9 N/NE 11.1
Ieri h: 07:50 nuvoloso Nuvoloso 13 10 81 1014 9 NE 11.1
Ieri h: 07:20 molto_nuvoloso Molto Nuvoloso 12 10 87 1014 10 N 11.1
Ieri h: 06:50 molto_nuvoloso Molto Nuvoloso 12 10 87 1014 9 N 11.1
Ieri h: 06:20 molto_nuvoloso Molto Nuvoloso 12 9 81 1014 9 N/NE 11.1
Ieri h: 05:50 molto_nuvoloso Molto Nuvoloso 12 9 81 1014 10 N/NE 14.8